Weather History for Lakeview AWS, OR

Change the Weather History Date:

Tuesday, June 18, 2013

  Actual Average Record
Temperature  
Mean Temperature 53 °F -  
Max Temperature 69 °F 77 °F 101 °F (1985)
Min Temperature 37 °F 44 °F 21 °F (1932)
Degree Days  
Heating Degree Days 12    
Growing Degree Days 3 (Base 50)    
Moisture  
Dew Point 35 °F    
Average Humidity 53    
Maximum Humidity 87    
Minimum Humidity 15    
Precipitation  
Precipitation 0.00 in - - ()
Sea Level Pressure  
Sea Level Pressure 29.95 in    
Wind  
Wind Speed 8 mph (SSW)    
Max Wind Speed 23 mph    
Max Gust Speed 31 mph    
Visibility 10 miles    
Events      
Averages and records for this station are not official NWS values.
T = Trace of Precipitation, MM = Missing Value Source: NWS Daily Summary

Daily Weather History Graph

Daily Weather History Graph

Search for Another Location

Airport:

Trip Planner

Search our weather history database for the weather conditions in past years. The results will help you decide how hot, cold, wet, or windy it might be!

Date:

Astronomy

Jun. 18, 2013 Rise Set
Actual Time 5:25 AM PDT 8:40 PM PDT
Civil Twilight 4:50 AM PDT 9:15 PM PDT
Nautical Twilight 4:05 AM PDT 9:59 PM PDT
Astronomical Twilight 3:11 AM PDT 10:54 PM PDT
Moon 3:26 PM PDT (6/18) 1:41 AM PDT (6/18)
Length of Visible Light 16h 24m
Length of Day
15h 15m
Waxing Gibbous, 72% of the Moon is Illuminated
Jun 18
Waxing Gibbous
Jun 23
Full
Jun 29
Last Quarter
Jul 8
New
Jul 15
First Quarter

Hourly Weather History & Observations

Time (PDT) Temp. Windchill Dew Point Humidity Pressure Visibility Wind Dir Wind Speed Gust Speed Precip Events Conditions
12:15 AM 51.8 °F - 35.6 °F 54% 30.02 in 10.0 mi SSW 5.8 mph - N/A   Clear
12:35 AM 48.2 °F - 37.4 °F 66% 30.02 in 10.0 mi East 8.1 mph - N/A   Clear
12:55 AM 48.2 °F - 37.4 °F 66% 30.02 in 10.0 mi SE 6.9 mph - N/A   Clear
1:15 AM 48.2 °F - 37.4 °F 66% 30.02 in 10.0 mi South 5.8 mph - N/A   Clear
1:35 AM 48.2 °F - 37.4 °F 66% 30.01 in 10.0 mi SSE 5.8 mph - N/A   Clear
1:55 AM 48.2 °F - 39.2 °F 71% 30.01 in 10.0 mi South 9.2 mph - N/A   Clear
2:15 AM 48.2 °F - 37.4 °F 66% 30.01 in 10.0 mi SSE 6.9 mph - N/A   Clear
2:35 AM 46.4 °F 42.9 °F 37.4 °F 71% 30.01 in 10.0 mi SSE 6.9 mph - N/A   Clear
2:55 AM 48.2 °F - 39.2 °F 71% 30.01 in 10.0 mi Calm Calm - N/A   Mostly Cloudy
3:15 AM 46.4 °F 44.3 °F 35.6 °F 66% 30.01 in 10.0 mi NW 4.6 mph - N/A   Overcast
3:35 AM 44.6 °F 42.2 °F 35.6 °F 71% 30.00 in 10.0 mi North 4.6 mph - N/A   Overcast
3:55 AM 42.8 °F 39.3 °F 35.6 °F 76% 30.00 in 10.0 mi North 5.8 mph - N/A   Mostly Cloudy
4:15 AM 39.2 °F 35.9 °F 33.8 °F 81% 30.00 in 10.0 mi NE 4.6 mph - N/A   Partly Cloudy
4:35 AM 39.2 °F 37.0 °F 33.8 °F 81% 30.00 in 10.0 mi East 3.5 mph - N/A   Clear
4:55 AM 39.2 °F - 32.0 °F 75% 29.99 in 10.0 mi Calm Calm - N/A   Clear
5:15 AM 37.4 °F - 33.8 °F 87% 29.99 in 10.0 mi Calm Calm - N/A   Clear
5:35 AM 37.4 °F - 32.0 °F 81% 29.99 in 10.0 mi Calm Calm - N/A   Clear
5:55 AM 37.4 °F - 33.8 °F 87% 29.99 in 10.0 mi Calm Calm - N/A   Clear
6:15 AM 39.2 °F 37.0 °F 35.6 °F 87% 30.00 in 10.0 mi NNE 3.5 mph - N/A   Mostly Cloudy
6:35 AM 42.8 °F - 37.4 °F 81% 30.00 in 10.0 mi Calm Calm - N/A   Overcast
6:55 AM 44.6 °F - 39.2 °F 81% 29.99 in 10.0 mi Calm Calm - N/A   Overcast
7:15 AM 48.2 °F - 42.8 °F 82% 29.99 in 10.0 mi SE 4.6 mph - N/A   Overcast
7:35 AM 51.8 °F - 42.8 °F 71% 29.99 in 10.0 mi SE 6.9 mph - N/A   Mostly Cloudy
7:55 AM 55.4 °F - 42.8 °F 63% 29.99 in 10.0 mi SSE 6.9 mph - N/A   Mostly Cloudy
8:15 AM 55.4 °F - 42.8 °F 63% 29.98 in 10.0 mi SE 8.1 mph - N/A   Overcast
8:35 AM 55.4 °F - 42.8 °F 63% 29.98 in 10.0 mi SSE 9.2 mph - N/A   Overcast
8:55 AM 55.4 °F - 42.8 °F 63% 29.98 in 10.0 mi South 8.1 mph - N/A   Mostly Cloudy
9:15 AM 57.2 °F - 39.2 °F 51% 29.98 in 10.0 mi SSW 9.2 mph - N/A   Clear
9:35 AM 57.2 °F - 39.2 °F 51% 29.97 in 10.0 mi SSW 6.9 mph - N/A   Scattered Clouds
9:55 AM 60.8 °F - 39.2 °F 45% 29.96 in 10.0 mi South 11.5 mph 16.1 mph N/A   Partly Cloudy
10:15 AM 60.8 °F - 39.2 °F 45% 29.96 in 10.0 mi Calm Calm - N/A   Clear
10:35 AM 60.8 °F - 39.2 °F 45% 29.96 in 10.0 mi South 10.4 mph - N/A   Partly Cloudy
10:55 AM 60.8 °F - 39.2 °F 45% 29.95 in 10.0 mi SSW 8.1 mph - N/A   Scattered Clouds
11:15 AM 60.8 °F - 39.2 °F 45% 29.95 in 10.0 mi SSW 4.6 mph - N/A   Scattered Clouds
11:35 AM 60.8 °F - 39.2 °F 45% 29.95 in 10.0 mi SW 10.4 mph - N/A   Scattered Clouds
11:55 AM 62.6 °F - 39.2 °F 42% 29.95 in 10.0 mi SSW 8.1 mph - N/A   Scattered Clouds
12:15 PM 60.8 °F - 37.4 °F 42% 29.94 in 10.0 mi SSW 11.5 mph - N/A   Mostly Cloudy
12:35 PM 62.6 °F - 35.6 °F 37% 29.94 in 10.0 mi SSW 10.4 mph - N/A   Scattered Clouds
12:55 PM 62.6 °F - 35.6 °F 37% 29.94 in 10.0 mi SSW 11.5 mph 17.3 mph N/A   Mostly Cloudy
1:15 PM 62.6 °F - 37.4 °F 39% 29.93 in 10.0 mi SSW 12.7 mph 17.3 mph N/A   Partly Cloudy
1:35 PM 64.4 °F - 33.8 °F 32% 29.93 in 10.0 mi South 12.7 mph - N/A   Clear
1:55 PM 64.4 °F - 33.8 °F 32% 29.93 in 10.0 mi South 15.0 mph 20.7 mph N/A   Clear
2:15 PM 64.4 °F - 33.8 °F 32% 29.92 in 10.0 mi South 17.3 mph - N/A   Clear
2:35 PM 68.0 °F - 33.8 °F 28% 29.91 in 10.0 mi SSE 10.4 mph 20.7 mph N/A   Partly Cloudy
2:55 PM 68.0 °F - 32.0 °F 26% 29.90 in 10.0 mi South 12.7 mph 27.6 mph N/A   Scattered Clouds
3:15 PM 66.2 °F - 28.4 °F 24% 29.89 in 10.0 mi SW 13.8 mph - N/A   Mostly Cloudy
3:35 PM 69.8 °F - 30.2 °F 23% 29.88 in 10.0 mi South 12.7 mph 25.3 mph N/A   Mostly Cloudy
3:55 PM 69.8 °F - 28.4 °F 21% 29.88 in 10.0 mi SW 21.9 mph 28.8 mph N/A   Scattered Clouds
4:15 PM 69.8 °F - 28.4 °F 21% 29.87 in 10.0 mi SSW 18.4 mph 28.8 mph N/A   Mostly Cloudy
4:35 PM 69.8 °F - 24.8 °F 18% 29.87 in 10.0 mi SSW 21.9 mph 31.1 mph N/A   Scattered Clouds
4:55 PM 69.8 °F - 19.4 °F 15% 29.86 in 10.0 mi SW 18.4 mph 23.0 mph N/A   Partly Cloudy
5:15 PM 68.0 °F - 19.4 °F 16% 29.86 in 10.0 mi SW 19.6 mph 23.0 mph N/A   Clear
5:35 PM 66.2 °F - 19.4 °F 17% 29.85 in 10.0 mi SW 23.0 mph 27.6 mph N/A   Clear
5:55 PM 66.2 °F - 21.2 °F 18% 29.85 in 10.0 mi SW 13.8 mph 29.9 mph N/A   Clear
6:15 PM 66.2 °F - 28.4 °F 24% 29.85 in 10.0 mi WSW 13.8 mph 20.7 mph N/A   Scattered Clouds
6:35 PM 64.4 °F - 32.0 °F 30% 29.85 in 10.0 mi West 15.0 mph 25.3 mph N/A   Partly Cloudy
6:55 PM 60.8 °F - 35.6 °F 39% 29.86 in 10.0 mi West 20.7 mph 27.6 mph N/A   Clear
7:15 PM 60.8 °F - 32.0 °F 34% 29.87 in 10.0 mi West 19.6 mph 27.6 mph N/A   Clear
7:35 PM 57.2 °F - 32.0 °F 38% 29.88 in 10.0 mi West 19.6 mph 26.5 mph N/A   Clear
7:55 PM 55.4 °F - 30.2 °F 38% 29.89 in 10.0 mi West 17.3 mph - N/A   Clear
8:15 PM 53.6 °F - 32.0 °F 44% 29.90 in 10.0 mi WNW 6.9 mph - N/A   Clear
8:35 PM 48.2 °F - 30.2 °F 50% 29.92 in 10.0 mi West 9.2 mph - N/A   Clear
8:55 PM 46.4 °F 43.5 °F 30.2 °F 53% 29.94 in 10.0 mi NNE 5.8 mph - N/A   Clear
9:15 PM 46.4 °F 42.9 °F 30.2 °F 53% 29.95 in 10.0 mi North 6.9 mph - N/A   Scattered Clouds
9:35 PM 46.4 °F 41.9 °F 32.0 °F 57% 29.95 in 10.0 mi NW 9.2 mph - N/A   Mostly Cloudy
9:55 PM 46.4 °F 43.5 °F 33.8 °F 62% 29.95 in 10.0 mi WNW 5.8 mph - N/A   Overcast
10:15 PM 46.4 °F 43.5 °F 32.0 °F 57% 29.95 in 10.0 mi NW 5.8 mph - N/A   Overcast
10:35 PM 46.4 °F 42.9 °F 37.4 °F 71% 29.96 in 10.0 mi NW 6.9 mph - N/A   Overcast
10:55 PM 44.6 °F 41.4 °F 37.4 °F 76% 29.96 in 10.0 mi WSW 5.8 mph - N/A   Overcast
11:15 PM 44.6 °F 42.2 °F 37.4 °F 76% 29.96 in 9.0 mi NW 4.6 mph - N/A   Overcast
11:35 PM 42.8 °F 38.6 °F 35.6 °F 76% 29.95 in 10.0 mi North 6.9 mph - N/A   Overcast
11:55 PM 42.8 °F 39.3 °F 37.4 °F 81% 29.95 in 10.0 mi NNE 5.8 mph - N/A   Overcast